Simultaneous Nadir Overpasses (SNOs) Predictions

Prediction of SNOs between METOP-A and NOAA-19 Satellite Orbit:

Table of predicted SNOs for the next 14.0 days since TLE Epoch: 3/20/2015
Index Date (METOP-A) Time (METOP-A) Lat,Lon (METOP-A) SZA (METOP-A ) Date (NOAA-19) Time (NOAA-19) Lat,Lon (NOAA-19) SZA (NOAA-19 ) Distance(km) Time Diff (sec)
1 03/24/2015 20:29:01 74.86,-130.50 73.29 03/24/2015 20:27:47 74.86,-130.89 73.31 11.51 74
2 03/24/2015 21:19:45 -74.76, 36.57 106.82 03/24/2015 21:18:48 -74.75, 36.66 106.83 3.11 57
3 03/24/2015 22:10:25 74.74,-156.16 73.15 03/24/2015 22:09:48 74.77,-156.15 73.19 3.63 37
4 03/24/2015 23:01:07 -74.74, 11.17 106.87 03/24/2015 23:00:51 -74.75, 11.13 106.85 1.85 16
5 03/24/2015 23:51:47 74.72, 178.44 73.10 03/24/2015 23:51:50 74.73, 178.45 73.11 1.55 3
6
